This is the latest recevied weather packets stored in our database for station/object SP6PWT-13. If no packets are shown the sender has not sent any weather packets the latest 10 day(s).
| Time | Temp. | Humidity | Pressure | Rain* | Wind** | Luminosity | Snow |
|---|---|---|---|---|---|---|---|
| 1777737287 | 23.89° C | 29% | 1003.6 hPa | 0 mm | - | 170 W/m² | - |
| 1777736987 | 23.33° C | 29% | 1003.9 hPa | 0 mm | - | 182 W/m² | - |
| 1777736676 | 23.89° C | 29% | 1003.9 hPa | 0 mm | - | 194 W/m² | - |
| 1777736376 | 23.33° C | 29% | 1004.1 hPa | 0 mm | - | 206 W/m² | - |
| 1777736065 | 23.33° C | 29% | 1004.1 hPa | 0 mm | - | 220 W/m² | - |
| 1777735765 | 23.89° C | 29% | 1004.2 hPa | 0 mm | - | 233 W/m² | - |
| 1777735454 | 23.89° C | 29% | 1004.2 hPa | 0 mm | - | 246 W/m² | - |
| 1777735154 | 23.33° C | 29% | 1004.2 hPa | 0 mm | - | 257 W/m² | - |
| 1777734843 | 23.33° C | 29% | 1004.2 hPa | 0 mm | - | 270 W/m² | - |
| 1777734543 | 23.33° C | 29% | 1004.3 hPa | 0 mm | - | 283 W/m² | - |
| 1777734233 | 23.89° C | 29% | 1004.4 hPa | 0 mm | - | 294 W/m² | - |
| 1777733933 | 23.89° C | 29% | 1004.3 hPa | 0 mm | - | 307 W/m² | - |
| 1777733632 | 23.89° C | 29% | 1004.5 hPa | 0 mm | - | 319 W/m² | - |
| 1777733321 | 23.89° C | 29% | 1004.5 hPa | 0 mm | - | 329 W/m² | - |
| 1777733021 | 23.89° C | 29% | 1004.6 hPa | 0 mm | - | 339 W/m² | - |
| 1777732710 | 24.44° C | 28% | 1004.6 hPa | 0 mm | - | 349 W/m² | - |
| 1777732409 | 23.89° C | 28% | 1004.5 hPa | 0 mm | - | 359 W/m² | - |
| 1777732109 | 24.44° C | 28% | 1004.8 hPa | 0 mm | - | 369 W/m² | - |
| 1777731798 | 24.44° C | 28% | 1004.7 hPa | 0 mm | - | 379 W/m² | - |
| 1777731498 | 24.44° C | 28% | 1005 hPa | 0 mm | - | 388 W/m² | - |
| 1777731188 | 24.44° C | 28% | 1005.1 hPa | 0 mm | - | 398 W/m² | - |
| 1777730887 | 24.44° C | 28% | 1005.2 hPa | 0 mm | - | 408 W/m² | - |
| 1777730577 | 23.33° C | 28% | 1005 hPa | 0 mm | - | 415 W/m² | - |
| 1777730276 | 23.33° C | 29% | 1005.1 hPa | 0 mm | - | 428 W/m² | - |
| 1777729976 | 23.33° C | 29% | 1005.1 hPa | 0 mm | - | 434 W/m² | - |
* Rain latest hour (hover to see other rain measurements)
** Current wind speed in m/s (hover to see current wind gust speed)